Location: Tamazert
(32.6352°N, 5.2072°W)
Time: 15:45:43
(UTC+00:00)

Courier 1B Rocket - Pass Details

Date: 07 October 2022
Orbit: 920 x 1202 km, 28.3° (Epoch: 01 December)

Event Time Altitude Azimuth Distance (km) Brightness Sun altitude
Rises 18:59:41 0° 260° (W) 3,876 9.9 -13.8°
Reaches altitude 10° 19:02:33 10° 257° (WSW) 2,876 8.7 -14.4°
Maximum altitude 19:09:24 61° 179° (S) 1,129 5.3 -15.9°
Enters shadow 19:13:23 24° 107° (ESE) 1,882 5.9 -16.7°
